Weather in Valle de la Pascua

Venezuela     9°13′21″N   65°59′29″W
temp.,
°C
wind,
m/s
gust,
m/s
humid.,
%
clouds,
%
prec.,
mm/h
press.,
hPa
HPBL,
m
14 april, wed
wed1423:00+29ene3761100 1.3 1011308
02:00+27ene2573100 5.4 1009218
05:00+27e2873100 1.9 1010497
08:00+27ese3770100 4.9 1013644
11:00+30sse3558100 1.6 10141402
14:00+30ssw3359100 3.1 10111174
17:00+28sw2366100 2.9 1010449
20:00+27sw2572100 2.9 1011275
15 april, thu
thu1523:00+27w2677100 0.0 1012380
02:00+25sw2786100 5.3 1010252
05:00+24wsw378698 6.4 1011267
08:00+25wsw2484100 9.8 1013207
11:00+28ssw226864 0.6 1014747
14:00+30sw1159100 1.2 10101191
17:00+30wsw1255100 0.1 10081165
20:00+28wnw1169100 0.1 101019
16 april, fri
fri1623:00+26ene257659 0.1 1011214
02:00+26ene3776100 0.4 1010360
05:00+25ene398192 0.0 1010526
08:00+26e486996 0.0 1013835
11:00+31ese4652100 0.0 10121567
14:00+34ese463655 0.0 10082731
17:00+35se463299 0.0 10072580
20:00+30ne485268 0.0 1009355
17 april, sat
sat1723:00+28ne396396 0.0 1011451
02:00+26ene397278 0.2 1011595
05:00+26e496986 0.2 1012726
08:00+26e596671 0.2 1014900
11:00+31ese574319 0.0 10141679
14:00+35ese463191 0.0 10102514
17:00+35ese462828 0.0 10082861
20:00+30ne5104880 0.0 1010454
18 april, sun
sun1823:00+27nne41162100 0.0 1013682
02:00+26ene396798 0.0 1012767
05:00+25e4106698 0.0 1013810
08:00+26e49626 0.0 1015969
11:00+32e574155 0.0 10151814
14:00+35e472882 0.0 10112679
17:00+36ese4725100 0.0 10083097
20:00+29ne4950100 0.0 1011635